{"data":{"norad_id":62054,"epoch":"2026-09-21T21:39:27.440352Z","epoch_age_seconds":60136,"freshness":"FRESH","line1":"1 62054U 24216Y   26264.90240093  .00008748  00000+0  32697-3 0  9995","line2":"2 62054  43.0007 228.2330 0001467 262.5594  97.5091 15.27585773103896","mean_motion":15.27585773,"eccentricity":0.0001467,"inclination_deg":43.0007,"raan_deg":228.233,"arg_perigee_deg":262.5594,"mean_anomaly_deg":97.5091,"bstar":0.00032697,"rev_number":10389,"period_min":94.266392463973,"perigee_km":482.02527619089,"apogee_km":484.03834311964,"semimajor_km":6861.1688096553,"source":"CELESTRAK","updated_at":"2026-09-22T09:00:49.490872Z"}}